TimeMST,TemperatureF,Dew PointF,Humidity,Sea Level PressureIn,VisibilityMPH,Wind Direction,Wind SpeedMPH,Gust SpeedMPH,PrecipitationIn,Events,Conditions,WindDirDegrees,DateUTC
12:05 AM,-7.6,-9999,N/A,29.97,10.0,Calm,Calm,-,N/A,Snow,Light Snow,0,2012-12-31 07:05:00
12:25 AM,-9.4,-9999,N/A,29.98,10.0,Calm,Calm,-,N/A,Snow,Light Snow,0,2012-12-31 07:25:00
12:45 AM,-7.6,-9999,N/A,29.98,6.0,Calm,Calm,-,N/A,Snow,Light Snow,0,2012-12-31 07:45:00
1:05 AM,-4.0,-9999,N/A,29.97,3.0,Calm,Calm,-,N/A,Snow,Light Snow,0,2012-12-31 08:05:00
1:25 AM,-4.0,-9999,N/A,29.97,5.0,Calm,Calm,-,N/A,Snow,Light Snow,0,2012-12-31 08:25:00
1:45 AM,-2.2,-9999,N/A,29.97,9.0,Calm,Calm,-,N/A,Snow,Light Snow,0,2012-12-31 08:45:00
2:05 AM,-4.0,-9999,N/A,29.97,10.0,Calm,Calm,-,N/A,,Overcast,0,2012-12-31 09:05:00
2:25 AM,-4.0,-9999,N/A,29.97,10.0,Calm,Calm,-,N/A,,Overcast,0,2012-12-31 09:25:00
2:45 AM,-7.6,-9999,N/A,29.98,10.0,Calm,Calm,-,N/A,,Overcast,0,2012-12-31 09:45:00
3:05 AM,-7.6,-9999,N/A,29.98,10.0,Calm,Calm,-,N/A,,Overcast,0,2012-12-31 10:05:00
3:25 AM,-7.6,-9999,N/A,29.98,10.0,Calm,Calm,-,N/A,,Overcast,0,2012-12-31 10:25:00
3:45 AM,-4.0,-9999,N/A,29.98,10.0,Calm,Calm,-,N/A,Snow,Light Snow,0,2012-12-31 10:45:00
4:05 AM,-4.0,-9999,N/A,29.98,10.0,SSW,3.5,-,N/A,Snow,Light Snow,210,2012-12-31 11:05:00
4:25 AM,-2.2,-9999,N/A,29.97,10.0,SSW,3.5,-,N/A,,Overcast,210,2012-12-31 11:25:00
4:45 AM,-2.2,-9999,N/A,29.98,10.0,Calm,Calm,-,N/A,,Overcast,0,2012-12-31 11:45:00
5:05 AM,-0.4,-9999,N/A,29.98,10.0,Calm,Calm,-,N/A,,Overcast,0,2012-12-31 12:05:00
5:45 AM,-0.4,-9999,N/A,29.99,10.0,Calm,Calm,-,N/A,,Overcast,0,2012-12-31 12:45:00
6:05 AM,-0.4,-9999,N/A,29.98,10.0,Calm,Calm,-,N/A,,Mostly Cloudy,0,2012-12-31 13:05:00
6:25 AM,-0.4,-9999,N/A,29.99,10.0,Calm,Calm,-,N/A,,Overcast,0,2012-12-31 13:25:00
6:45 AM,-2.2,-9999,N/A,29.98,10.0,South,3.5,-,N/A,,Overcast,180,2012-12-31 13:45:00
7:05 AM,-4.0,-9999,N/A,29.99,9.0,Calm,Calm,-,N/A,Snow,Light Snow,0,2012-12-31 14:05:00
7:25 AM,-4.0,-9999,N/A,29.99,4.0,Calm,Calm,-,N/A,Snow,Light Snow,0,2012-12-31 14:25:00
7:45 AM,-2.2,-9999,N/A,30.00,10.0,Calm,Calm,-,N/A,,Overcast,0,2012-12-31 14:45:00
8:05 AM,-2.2,-9999,N/A,30.01,9.0,Calm,Calm,-,N/A,,Mostly Cloudy,0,2012-12-31 15:05:00
8:25 AM,-2.2,-9999,N/A,30.01,5.0,Calm,Calm,-,N/A,Snow,Light Snow,0,2012-12-31 15:25:00
8:45 AM,-4.0,-9999,N/A,30.02,5.0,Calm,Calm,-,N/A,,Haze,0,2012-12-31 15:45:00
9:05 AM,-4.0,-9999,N/A,30.01,10.0,Calm,Calm,-,N/A,,Overcast,0,2012-12-31 16:05:00
9:25 AM,-2.2,-9999,N/A,30.02,10.0,Calm,Calm,-,N/A,,Mostly Cloudy,0,2012-12-31 16:25:00
9:45 AM,-0.4,-9999,N/A,30.03,10.0,Calm,Calm,-,N/A,,Partly Cloudy,0,2012-12-31 16:45:00
10:05 AM,-0.4,-9999,N/A,30.04,10.0,ENE,3.5,-,N/A,,Clear,60,2012-12-31 17:05:00
10:25 AM,3.2,-9999,N/A,30.04,10.0,Calm,Calm,-,N/A,,Scattered Clouds,0,2012-12-31 17:25:00
10:45 AM,5.0,-9999,N/A,30.04,10.0,Calm,Calm,-,N/A,,Partly Cloudy,0,2012-12-31 17:45:00
11:05 AM,8.6,-9999,N/A,30.04,10.0,Calm,Calm,-,N/A,,Clear,0,2012-12-31 18:05:00
11:25 AM,6.8,-9999,N/A,30.03,10.0,Calm,Calm,-,N/A,,Clear,0,2012-12-31 18:25:00
11:45 AM,8.6,-9999,N/A,30.02,10.0,Calm,Calm,-,N/A,,Clear,0,2012-12-31 18:45:00
12:05 PM,10.4,-9999,N/A,30.01,10.0,Calm,Calm,-,N/A,,Clear,0,2012-12-31 19:05:00
12:25 PM,10.4,-9999,N/A,30.00,10.0,Calm,Calm,-,N/A,,Partly Cloudy,0,2012-12-31 19:25:00
12:45 PM,12.2,-9999,N/A,29.99,10.0,SSW,3.5,-,N/A,,Scattered Clouds,200,2012-12-31 19:45:00
1:05 PM,12.2,-9999,N/A,29.99,10.0,SW,5.8,-,N/A,,Overcast,220,2012-12-31 20:05:00
1:25 PM,14.0,-9999,N/A,29.99,10.0,South,8.1,-,N/A,,Mostly Cloudy,190,2012-12-31 20:25:00
1:45 PM,12.2,-9999,N/A,29.99,10.0,South,9.2,-,N/A,,Mostly Cloudy,190,2012-12-31 20:45:00
2:05 PM,12.2,-9999,N/A,30.00,10.0,SSW,11.5,-,N/A,,Mostly Cloudy,210,2012-12-31 21:05:00
2:25 PM,12.2,-9999,N/A,30.01,10.0,SSW,11.5,-,N/A,,Scattered Clouds,210,2012-12-31 21:25:00
2:45 PM,12.2,-9999,N/A,30.01,10.0,SSW,11.5,-,N/A,,Mostly Cloudy,210,2012-12-31 21:45:00
3:05 PM,10.4,-9999,N/A,30.01,10.0,SSW,11.5,-,N/A,,Mostly Cloudy,210,2012-12-31 22:05:00
3:25 PM,10.4,-9999,N/A,30.01,10.0,SSW,9.2,-,N/A,,Partly Cloudy,200,2012-12-31 22:25:00
3:45 PM,10.4,-9999,N/A,30.02,10.0,SW,11.5,-,N/A,,Scattered Clouds,220,2012-12-31 22:45:00
4:05 PM,10.4,-9999,N/A,30.03,10.0,SSW,10.4,-,N/A,,Mostly Cloudy,210,2012-12-31 23:05:00
4:25 PM,10.4,-9999,N/A,30.03,10.0,SSW,10.4,-,N/A,,Overcast,210,2012-12-31 23:25:00
4:45 PM,10.4,-9999,N/A,30.04,10.0,SW,8.1,-,N/A,,Overcast,220,2012-12-31 23:45:00
5:05 PM,10.4,-9999,N/A,30.04,10.0,SSW,10.4,-,N/A,,Overcast,210,2013-01-01 00:05:00
5:25 PM,10.4,-9999,N/A,30.04,10.0,SW,9.2,-,N/A,,Overcast,220,2013-01-01 00:25:00
5:45 PM,10.4,-9999,N/A,30.04,10.0,SW,8.1,-,N/A,,Overcast,230,2013-01-01 00:45:00
6:05 PM,10.4,-9999,N/A,30.04,10.0,SSW,10.4,-,N/A,,Overcast,210,2013-01-01 01:05:00
6:25 PM,10.4,-9999,N/A,30.05,10.0,SW,5.8,-,N/A,,Overcast,220,2013-01-01 01:25:00
7:05 PM,8.6,-9999,N/A,30.05,10.0,SW,9.2,16.1,N/A,,Overcast,220,2013-01-01 02:05:00
7:25 PM,8.6,-9999,N/A,30.05,10.0,SW,10.4,-,N/A,,Overcast,220,2013-01-01 02:25:00
8:05 PM,8.6,-9999,N/A,30.06,10.0,SSW,11.5,-,N/A,,Overcast,210,2013-01-01 03:05:00
8:25 PM,8.6,-9999,N/A,30.06,10.0,SSW,9.2,-,N/A,,Overcast,200,2013-01-01 03:25:00
8:45 PM,8.6,-9999,N/A,30.06,10.0,SSW,9.2,-,N/A,,Overcast,210,2013-01-01 03:45:00
9:05 PM,8.6,-9999,N/A,30.06,10.0,SSW,10.4,-,N/A,,Overcast,200,2013-01-01 04:05:00
9:25 PM,8.6,-9999,N/A,30.06,10.0,SW,9.2,-,N/A,,Overcast,220,2013-01-01 04:25:00
9:45 PM,8.6,-9999,N/A,30.07,10.0,SW,9.2,-,N/A,Snow,Light Snow,220,2013-01-01 04:45:00
10:05 PM,8.6,-9999,N/A,30.07,10.0,SSW,9.2,-,N/A,Snow,Light Snow,210,2013-01-01 05:05:00
10:25 PM,8.6,-9999,N/A,30.08,10.0,SSW,9.2,-,N/A,,Overcast,210,2013-01-01 05:25:00
10:45 PM,8.6,-9999,N/A,30.09,10.0,SW,8.1,-,N/A,,Overcast,220,2013-01-01 05:45:00
11:05 PM,8.6,-9999,N/A,30.10,10.0,SW,9.2,-,N/A,,Overcast,220,2013-01-01 06:05:00
11:25 PM,6.8,-9999,N/A,30.10,10.0,SSW,12.7,-,N/A,,Overcast,210,2013-01-01 06:25:00
11:45 PM,6.8,-9999,N/A,30.11,10.0,SSW,10.4,-,N/A,Snow,Light Snow,210,2013-01-01 06:45:00